This demonstration page uses our WeatherBlox Daily Observations layout. Learn more.

Hourly Observations for May 6, 2019

Temp ( °F °C ) Dew Point ( °F °C ) Humidity (%) Winds ( mph kmh ) Pressure ( in mb ) Visibility ( mi km ) Precip ( " mm )
12:54 am 00:54 Clear 54 12.2 51 10.6 90 90 WNW 5 7 29.81 1010 10 16.0934 0 0
1:54 am 01:54 Clear with Mist and Fog 50 10 48 8.9 93 93 NNW 5 7 29.85 1011 6 9.65604 0 0
2:54 am 02:54 Clear 54 12.2 51 10.6 90 90 NNW 9 15 29.88 1012 7 11.26538 0 0
3:54 am 03:54 Partly Cloudy with Mist and Fog 52 11.1 50 10 93 93 N 8 13 29.92 1013 5 8.0467 0 0
4:54 am 04:54 Mostly Clear 53 11.7 50 10 89 89 N 9 15 29.93 1014 7 11.26538 0 0
5:54 am 05:54 Partly Cloudy 50 10 45 7.2 83 83 N 10 17 29.96 1015 10 16.0934 0 0
6:54 am 06:54 Mostly Sunny 48 8.9 44 6.7 86 86 NNE 12 19 29.98 1015 10 16.0934 0 0
7:54 am 07:54 Sunny 50 10 44 6.7 80 80 NNE 15 24 30.02 1017 10 16.0934 0 0
8:54 am 08:54 Sunny 51 10.6 44 6.7 77 77 NNE 15 24 30.04 1017 10 16.0934 0 0
9:54 am 09:54 Sunny 53 11.7 44 6.7 72 72 NE 14 22 30.04 1017 10 16.0934 0 0
10:54 am 10:54 Partly Cloudy 59 15 46 7.8 62 62 NE 10 17 30.04 1017 10 16.0934 0 0
11:54 am 11:54 Sunny 61 16.1 47 8.3 60 60 NE 7 11 30.03 1017 10 16.0934 0 0
12:54 pm 12:54 Mostly Sunny 62 16.7 48 8.9 60 60 ENE 12 19 30.03 1017 10 16.0934 0 0
1:54 pm 13:54 Cloudy 60 15.6 48 8.9 65 65 N 15 24 30.03 1017 10 16.0934 0 0
2:45 pm 14:45 Cloudy with Heavy Rain 53 11.7 49 9.4 86 86 N 10 17 30.08 1019 2 3.21868 0.07 1.778
2:54 pm 14:54 Cloudy with Heavy Rain 53 11.7 49 9.4 86 86 NE 13 20 30.05 1018 2 3.21868 0.11 2.794
3:15 pm 15:15 Cloudy with Rain 53 11.7 50 10 89 89 NE 12 19 30.04 1017 4 6.43736 0.06 1.524
3:54 pm 15:54 Cloudy with Rain 53 11.7 50 10 89 89 NE 13 20 30.03 1017 4 6.43736 0.15 3.81
4:37 pm 16:37 Cloudy with Heavy Rain 52 11.1 49 9.4 89 89 NNE 5 7 30.08 1019 2 3.21868 0.14 3.556
4:54 pm 16:54 Cloudy with Rain 52 11.1 49 9.4 89 89 N 6 9 30.07 1018 3 4.82802 0.23 5.842
5:54 pm 17:54 Cloudy 54 12.2 50 10 87 87 E 18 30 30.02 1017 10 16.0934 0.05 1.27
6:54 pm 18:54 Cloudy 56 13.3 51 10.6 84 84 ENE 12 19 30.01 1016 10 16.0934 0 0
7:37 pm 19:37 Cloudy 56 13.3 51 10.6 84 84 NNE 10 17 30.03 1017 10 16.0934 0 0
7:54 pm 19:54 Cloudy 55 12.8 51 10.6 87 87 NNE 10 17 30.04 1017 10 16.0934 0 0
8:24 pm 20:24 Cloudy 55 12.8 51 10.6 87 87 N 14 22 30.05 1018 10 16.0934 0 0
8:31 pm 20:31 Cloudy 55 12.8 51 10.6 87 87 N 14 22 30.04 1017 10 16.0934 0 0
8:54 pm 20:54 Cloudy 54 12.2 51 10.6 90 90 NNE 14 22 30.04 1017 8 12.87472 0 0
9:54 pm 21:54 Cloudy 53 11.7 49 9.4 86 86 NNE 17 28 30.07 1018 9 14.48406 0 0
10:02 pm 22:02 Cloudy 53 11.7 49 9.4 86 86 NNE 18 30 30.06 1018 10 16.0934 0 0
10:38 pm 22:38 Cloudy 53 11.7 48 8.9 83 83 NE 14 22 30.08 1019 10 16.0934 0 0
10:54 pm 22:54 Cloudy 53 11.7 48 8.9 83 83 NE 17 28 30.07 1018 10 16.0934 0 0
11:54 pm 23:54 Cloudy 53 11.7 47 8.3 80 80 NE 10 17 30.08 1019 10 16.0934 0 0

Powered by AerisWeather